This is the latest recevied weather packets stored in our database for station/object KO4ZGL-13. If no packets are shown the sender has not sent any weather packets the latest 10 day(s).
| Time | Temp. | Humidity | Pressure | Rain* | Wind** | Luminosity | Snow |
|---|---|---|---|---|---|---|---|
| 1788455518 | 35° C | 68% | 1018.1 hPa | 0 mm | - | 674 W/m² | - |
| 1788455216 | 34.44° C | 70% | 1018 hPa | 0 mm | - | 708 W/m² | - |
| 1788454940 | 33.89° C | 70% | 1018 hPa | 0 mm | - | 751 W/m² | - |
| 1788454610 | 34.44° C | 70% | 1018.2 hPa | 0 mm | - | 252 W/m² | - |
| 1788454305 | 33.89° C | 71% | 1018.2 hPa | 0 mm | - | 731 W/m² | - |
| 1788454000 | 33.89° C | 73% | 1018.4 hPa | 0 mm | - | 701 W/m² | - |
| 1788453696 | 32.78° C | 74% | 1018.3 hPa | 0 mm | - | 705 W/m² | - |
| 1788453409 | 32.78° C | 73% | 1018.4 hPa | 0 mm | - | 756 W/m² | - |
| 1788453087 | 33.89° C | 72% | 1018.4 hPa | 0 mm | - | 173 W/m² | - |
| 1788452783 | 33.89° C | 71% | 1018.4 hPa | 0 mm | - | 542 W/m² | - |
| 1788452478 | 33.89° C | 74% | 1018.2 hPa | 0 mm | - | 739 W/m² | - |
| 1788452173 | 33.89° C | 72% | 1018.6 hPa | 0 mm | - | 730 W/m² | - |
| 1788451868 | 33.33° C | 72% | 1018.8 hPa | 0 mm | - | 683 W/m² | - |
| 1788451563 | 33.89° C | 72% | 1018.7 hPa | 0 mm | - | 678 W/m² | - |
| 1788451257 | 33.89° C | 70% | 1018.7 hPa | 0 mm | - | 682 W/m² | - |
| 1788450956 | 33.89° C | 73% | 1018.5 hPa | 0 mm | - | 669 W/m² | - |
| 1788450651 | 33.33° C | 73% | 1018.8 hPa | 0 mm | - | 665 W/m² | - |
| 1788450348 | 33.33° C | 71% | 1018.9 hPa | 0 mm | - | 652 W/m² | - |
| 1788450044 | 32.78° C | 72% | 1018.8 hPa | 0 mm | - | 727 W/m² | - |
| 1788449739 | 32.78° C | 73% | 1018.7 hPa | 0 mm | - | 738 W/m² | - |
| 1788449434 | 32.78° C | 76% | 1018.7 hPa | 0 mm | - | 751 W/m² | - |
| 1788449130 | 32.78° C | 75% | 1018.8 hPa | 0 mm | - | 773 W/m² | - |
| 1788448827 | 31.67° C | 76% | 1018.8 hPa | 0 mm | - | 760 W/m² | - |
| 1788448525 | 31.67° C | 75% | 1018.9 hPa | 0 mm | - | 703 W/m² | - |
| 1788448221 | 31.67° C | 79% | 1018.9 hPa | 0 mm | - | 660 W/m² | - |
* Rain latest hour (hover to see other rain measurements)
** Current wind speed in m/s (hover to see current wind gust speed)